Flag for Austria Weather past 2 weeks in Amstetten, Lower Austria, Austria

Now
42 °F

Passing clouds.


Feels Like: N/A
Forecast: 32 / 58 °F
Wind: N/A

Location: Linz / Hoersching-Flughafen

Current Time: Apr 19, 2015 at 10:06:32 AM

Latest Report: Apr 19, 2015 at 9:00 AM


Visibility: 22 mi

Pressure: 30.24 "Hg

Humidity: 69%

Dew point: 32 °F

Location of AmstettenLocation

Historic Weather in Amstetten — Graph

°F

Amstetten temperature yesterday

Maximum temperature yesterday: 51 °F (at 6:00 PM)
Minimum temperature yesterday: 43 °F (at 8:00 AM)
Average temperature yesterday: 46 °F

Past Weeks' High & Low Weather Summary

 TemperatureHumidityPressure
High73 °F (Apr 16, 3:00 PM)95% (Apr 10, 7:00 AM)30.63 "Hg (Apr 10, 7:00 AM)
Low32 °F (Apr 7, 6:00 AM)27% (Apr 10, 6:00 PM)29.83 "Hg (Apr 17, 5:00 PM)
Average50 °F63%30.23 "Hg
* Reported Apr 4 8:00 AM — Apr 19 8:00 AM, Amstetten, Weather by CustomWeather, © 2015

Note: Actual official high and low records may vary slightly from our data, if they occured in-between our weather recording intervals... More about our weather records

Advertising

Amstetten weather history for previous 24 hours

 ConditionsComfort  
Time TempWeatherWind HumidityBarometerVisibility
8:00 AM
Sun, Apr 19
38 °FPassing clouds.N/A75%30.24 "Hg25 mi
7:00 AM34 °FPassing clouds.N/A84%30.25 "Hg19 mi
6:00 AM34 °FPassing clouds.N/A87%30.26 "Hg25 mi
5:00 AM35 °FPassing clouds.N/A84%30.27 "Hg28 mi
4:00 AM37 °FPassing clouds.7 mph75%30.27 "Hg2 mi
3:00 AM39 °FOvercast.N/A72%30.27 "Hg28 mi
2:00 AM39 °FOvercast.N/A75%30.28 "Hg28 mi
1:00 AM40 °FPassing clouds.N/A62%30.28 "Hg28 mi
12:00 AMN/APassing clouds.9 mphN/AN/A2 mi
11:00 PM
Sat, Apr 18
44 °FPassing clouds.N/A60%30.27 "Hg31 mi
10:00 PM45 °FPassing clouds.N/A47%30.27 "Hg28 mi
9:00 PM46 °FOvercast.5 mph51%30.24 "Hg31 mi
8:00 PM46 °FOvercast.N/A62%30.22 "Hg31 mi
7:00 PM49 °FPartly sunny.N/A53%30.20 "Hg28 mi
6:00 PM51 °FPassing clouds.N/A47%30.19 "Hg22 mi
5:00 PM51 °FScattered clouds.6 mph39%30.19 "Hg19 mi
4:00 PM51 °FOvercast.5 mph43%30.19 "Hg18 mi
3:00 PM49 °FPartly sunny.5 mph41%30.20 "Hg25 mi
2:00 PM49 °FOvercast.7 mph45%30.20 "Hg25 mi
1:00 PM51 °FPartly sunny.5 mph48%30.19 "Hg9 mi
12:00 PM47 °FScattered clouds.5 mph56%30.19 "Hg22 mi
11:00 AM46 °FPartly sunny.N/A65%30.19 "Hg25 mi
10:00 AM47 °FScattered clouds.N/A63%30.16 "Hg17 mi
Weather by CustomWeather, © 2015

See weather overviewHow to use our weather pages